EW0387 Weather Reports


Display with metric or nautical units.
time (UTC)temp
F
wind
direction
speed
MPH
gust
MPH
rain 1hr
in
rain 24hr
in
rain mn
in
humidity
%
barometer
mb
20260506084532 32 312 0.0 0.0 0.00 0.00 0.00 97 1010.2
20260506083023 34 312 0.0 0.0 0.00 0.00 0.00 97 1010.8
20260506081523 33 311 0.0 0.0 0.00 0.00 0.00 97 1011.1
20260506073017 32 310 0.0 0.0 0.00 0.00 0.00 97 1010.7
20260506071516 32 310 0.0 0.0 0.00 0.00 0.00 97 1010.8
20260506061511 32 310 0.0 0.0 0.00 0.00 0.16 97 1010.1
20260506044509 33 310 0.0 0.0 0.00 0.00 0.16 96 1010.5
20260506043008 33 310 0.0 0.0 0.00 0.00 0.16 96 1010.5
20260506041507 33 310 0.0 0.0 0.00 0.00 0.16 97 1010.4
20260506040010 33 310 0.0 0.0 0.00 0.00 0.16 97 1010.4
20260506034506 33 310 0.0 0.0 0.00 0.00 0.16 97 1010.1
20260506033006 33 310 0.0 0.0 0.00 0.00 0.16 97 1009.8
20260506031504 33 310 0.0 0.0 0.00 0.00 0.16 96 1009.7
20260506030004 33 310 0.0 0.0 0.00 0.00 0.16 96 1009.3
20260506024503 33 310 0.0 0.0 0.00 0.00 0.16 96 1009.1
20260506023003 33 310 0.0 0.0 0.00 0.00 0.16 96 1008.8
20260506021501 33 310 0.0 0.0 0.00 0.00 0.16 96 1009.0
20260506020001 33 310 0.0 0.0 0.00 0.00 0.16 96 1008.8
20260506014603 33 311 0.0 0.0 0.00 0.00 0.16 96 1008.9
20260506013106 33 310 0.0 0.0 0.00 0.00 0.16 96 1008.5
20260506011559 33 329 0.0 0.0 0.00 0.00 0.16 96 1008.3
20260506010117 33 308 0.0 0.0 0.00 0.00 0.16 96 1008.6
20260506004558 33 316 0.0 0.0 0.00 0.00 0.16 96 1008.3
20260506003058 33 290 0.0 0.0 0.00 0.00 0.15 96 1008.3
20260506001559 33 304 0.0 0.0 0.00 0.00 0.15 96 1007.8
20260506000057 33 310 0.0 0.0 0.00 0.00 0.15 96 1007.7
20260505234608 33 310 2.0 0.0 0.00 0.00 0.15 96 1007.8
20260505233055 33 335 4.0 0.0 0.00 0.00 0.15 96 1007.2
20260505231556 33 303 5.0 0.0 0.00 0.00 0.15 95 1006.3
20260505230052 33 328 4.0 0.0 0.00 0.00 0.15 95 1006.6
20260505224551 34 291 5.0 0.0 0.00 0.00 0.15 95 1005.9
20260505223050 34 310 5.0 0.0 0.00 0.00 0.15 95 1005.3
20260505221546 36 360 5.0 0.0 0.00 0.00 0.15 95 1004.8
20260505220048 37 358 6.0 0.0 0.00 0.00 0.15 96 1003.9
20260505214602 39 27 4.0 0.0 0.00 0.00 0.15 96 1003.9
20260505213057 39 17 3.0 0.0 0.00 0.00 0.15 96 1003.8
20260505211543 40 26 4.0 0.0 0.00 0.00 0.15 96 1003.9
20260505210047 40 328 2.0 0.0 0.00 0.00 0.15 96 1004.2
20260505204554 40 320 3.0 0.0 0.00 0.00 0.14 96 1004.2
20260505203050 40 27 4.0 0.0 0.00 0.00 0.13 96 1004.5
20260505201542 41 41 2.0 0.0 0.00 0.00 0.13 96 1003.9
20260505200057 39 36 3.0 0.0 0.00 0.00 0.13 96 1004.2
20260505194547 40 42 4.0 0.0 0.00 0.00 0.13 96 1003.5
20260505193045 40 15 4.0 0.0 0.00 0.00 0.12 96 1004.0
20260505191540 40 342 1.0 0.0 0.00 0.00 0.12 96 1004.3
20260505190040 40 38 1.0 0.0 0.00 0.00 0.12 96 1004.0
20260505184540 40 29 2.0 0.0 0.00 0.00 0.11 96 1004.6
20260505183039 40 352 2.0 0.0 0.00 0.00 0.11 96 1005.0
20260505181540 39 336 2.0 0.0 0.00 0.00 0.11 96 1005.1
20260505180100 39 45 2.0 0.0 0.00 0.00 0.11 96 1005.2
20260505174555 39 335 3.0 0.0 0.00 0.00 0.11 96 1005.2
20260505173044 39 323 2.0 0.0 0.00 0.00 0.11 96 1005.5
20260505171536 39 287 2.0 0.0 0.00 0.00 0.11 96 1005.9
20260505170036 38 338 2.0 0.0 0.00 0.00 0.11 96 1006.0
20260505164536 38 352 2.0 0.0 0.00 0.00 0.11 96 1006.1
20260505163035 38 32 2.0 0.0 0.00 0.00 0.10 96 1006.2
20260505161537 38 297 2.0 0.0 0.00 0.00 0.10 96 1005.8
20260505153034 37 342 2.0 0.0 0.00 0.00 0.10 96 1006.4
20260505151534 36 317 3.0 0.0 0.00 0.00 0.10 96 1005.7
20260505124527 36 352 5.0 0.0 0.00 0.00 0.06 94 1004.0
20260505123021 36 312 4.0 0.0 0.00 0.00 0.06 95 1004.1
20260505121518 36 18 5.0 0.0 0.00 0.00 0.06 94 1002.6
20260505120017 37 291 4.0 0.0 0.00 0.00 0.06 94 1002.4
20260505114515 37 305 6.0 0.0 0.00 0.00 0.06 94 1002.2
20260505113016 38 316 7.0 0.0 0.00 0.00 0.05 94 1002.1
20260505111509 38 356 7.0 0.0 0.00 0.00 0.03 94 1001.3
20260505101601 41 262 7.0 0.0 0.00 0.00 0.01 94 999.6
20260505100058 41 9 7.0 0.0 0.00 0.00 0.00 94 999.2
20260505094554 42 259 5.0 0.0 0.00 0.00 0.00 94 998.7
20260505093057 42 308 6.0 0.0 0.00 0.00 0.00 93 998.7
20260505091608 42 316 6.0 0.0 0.00 0.00 0.00 93 998.2
20260505090049 43 325 6.0 0.0 0.00 0.00 0.00 93 997.9